Pecs, Hungary

8:57 AM CET on February 21, 2018 (GMT +0100)
Pecs

Weather History for LHPP - October, 2012

Change the Weather History Date:

Friday, October 12, 2012

  Actual Average Record
Temperature  
Mean Temperature 52 °F -  
Max Temperature 59 °F 56 °F - ()
Min Temperature 44 °F 41 °F - ()
Degree Days  
Heating Degree Days 14    
Growing Degree Days 2 (Base 50)    
Moisture  
Dew Point 46 °F    
Average Humidity 81    
Maximum Humidity 100    
Minimum Humidity 55    
Precipitation  
Precipitation 0.08 in 0.06 in - ()
Sea Level Pressure  
Sea Level Pressure 29.94 in    
Wind  
Wind Speed 6 mph ()    
Max Wind Speed 13 mph    
Max Gust Speed -    
Visibility 4.8 miles    
Events Rain    
T = Trace of Precipitation, MM = Missing Value Source: Averaged Metar Reports

Daily Weather History Graph

Daily Weather History Graph

Search for Another Location

Airport or City:

Trip Planner

Search our weather history database for the weather conditions in past years. The results will help you decide how hot, cold, wet, or windy it might be!

Date:

Astronomy

Oct. 12, 2012 Rise Set
Actual Time 7:00 AM CEST 6:06 PM CEST
Civil Twilight 6:30 AM CEST 6:36 PM CEST
Nautical Twilight 5:55 AM CEST 7:10 PM CEST
Astronomical Twilight 5:20 AM CEST 7:45 PM CEST
Moon 3:13 AM CEST (10/12) 4:13 PM CEST (10/12)
Length of Visible Light 12h 05m
Length of Day
11h 05m
Waning Crescent, 12% of the Moon is Illuminated
Oct 12
Waning Crescent
Oct 15
New
Oct 22
First Quarter
Oct 29
Full
Nov 7
Last Quarter

Hourly Weather History & Observations

Time (CEST) Temp. Windchill Dew Point Humidity Pressure Visibility Wind Dir Wind Speed Gust Speed Precip Events Conditions
12:45 AM 46.4 °F 43.5 °F 44.6 °F 93% 29.98 in - East 5.8 mph - N/A   Clear
1:45 AM 46.4 °F 44.3 °F 44.6 °F 93% 29.98 in 4.3 mi East 4.6 mph - N/A   Scattered Clouds
2:00 AM 46 °F - 45 °F 94% 29.98 in 4 mi East 4.5 mph - -   Partly Cloudy
2:45 AM 46.4 °F 42.9 °F 44.6 °F 93% 29.95 in 4.3 mi East 6.9 mph - N/A   Partly Cloudy
4:45 AM 44.6 °F 40.7 °F 44.6 °F 100% 29.95 in 3.7 mi East 6.9 mph - N/A   Partly Cloudy
5:38 AM 46.4 °F 42.9 °F 44.6 °F 93% 29.95 in 2.5 mi East 6.9 mph - N/A   Partly Cloudy
5:45 AM 46.4 °F 42.9 °F 44.6 °F 93% 29.92 in 2.5 mi East 6.9 mph - N/A   Partly Cloudy
6:15 AM 44.6 °F 41.4 °F 44.6 °F 100% 29.95 in 2.5 mi East 5.8 mph - N/A   Mostly Cloudy
6:45 AM 46.4 °F 42.9 °F 44.6 °F 93% 29.92 in 2.5 mi ENE 6.9 mph - N/A   Mostly Cloudy
7:00 AM - - - N/A% - 1.9 mi ENE 5.8 mph - N/A   Mostly Cloudy
7:15 AM 46.4 °F 44.3 °F 44.6 °F 93% 29.95 in 2.5 mi East 4.6 mph - N/A   Mostly Cloudy
7:45 AM 48.2 °F - 46.4 °F 93% 29.95 in 2.5 mi East 5.8 mph - N/A   Mostly Cloudy
8:00 AM 47 °F - 46 °F 94% 29.95 in 2 mi East 6.7 mph - -   Mist
8:15 AM 48.2 °F - 46.4 °F 93% 29.95 in 3.7 mi East 8.1 mph - N/A   Mostly Cloudy
8:45 AM 50.0 °F - 46.4 °F 87% 29.95 in 3.7 mi East 8.1 mph - N/A   Mostly Cloudy
9:15 AM 50.0 °F - 46.4 °F 87% 29.95 in 3.7 mi East 6.9 mph - N/A   Mostly Cloudy
10:00 AM - - - N/A% - 5.0 mi East 10.4 mph - N/A   Mostly Cloudy
10:45 AM 53.6 °F - 46.4 °F 77% 29.95 in - East 6.9 mph - N/A   Clear
11:15 AM 55.4 °F - 48.2 °F 77% 29.95 in - East 8.1 mph - N/A   Clear
11:45 AM 55.4 °F - 46.4 °F 72% 29.95 in - ESE 12.7 mph - N/A   Clear
12:45 PM 59.0 °F - 46.4 °F 63% 29.95 in - ESE 10.4 mph - N/A   Clear
1:00 PM - - - N/A% - 5.0 mi SE 11.5 mph - N/A   Clear
1:15 PM 59.0 °F - 46.4 °F 63% 29.95 in - ESE 12.7 mph - N/A   Clear
1:45 PM 59.0 °F - 46.4 °F 63% 29.92 in - East 11.5 mph - N/A   Clear
2:00 PM 58 °F - 46 °F 55% 29.92 in 9 mi East 11.2 mph - -   Partly Cloudy
2:15 PM 59.0 °F - 46.4 °F 63% 29.92 in - East 12.7 mph - N/A   Clear
2:45 PM 59.0 °F - 44.6 °F 59% 29.92 in - East 11.5 mph - N/A   Clear
3:15 PM 57.2 °F - 46.4 °F 67% 29.92 in - ESE 9.2 mph - N/A   Clear
4:00 PM - - - N/A% - 5.0 mi SE 11.5 mph - N/A   Clear
4:15 PM 57.2 °F - 46.4 °F 67% 29.92 in 6.2 mi ESE 5.8 mph - N/A   Overcast
4:45 PM 57.2 °F - 48.2 °F 72% 29.92 in 6.2 mi East 3.5 mph - N/A   Overcast
5:45 PM 55.4 °F - 50.0 °F 82% 29.92 in 6.2 mi East 3.5 mph - N/A   Overcast
6:15 PM 55.4 °F - 48.2 °F 77% 29.92 in 6.2 mi East 5.8 mph - N/A   Overcast
6:45 PM 55.4 °F - 48.2 °F 77% 29.92 in 6.2 mi East 6.9 mph - N/A   Overcast
7:15 PM 55.4 °F - 46.4 °F 72% 29.92 in 6.2 mi East 6.9 mph - N/A   Overcast
7:37 PM 53.6 °F - 46.4 °F 77% 29.92 in - East 6.9 mph - N/A   Unknown
7:45 PM 53.6 °F - 46.4 °F 77% 29.92 in 6.2 mi East 5.8 mph - N/A Rain Light Rain
8:00 PM 54 °F - 46 °F 68% 29.93 in 9 mi East 6.7 mph - - Rain Light Rain
8:15 PM 53.6 °F - 48.2 °F 82% 29.92 in 6.2 mi ENE 4.6 mph - N/A Rain Light Rain
8:45 PM 53.6 °F - 48.2 °F 82% 29.95 in 6.2 mi ENE 4.6 mph - N/A Rain Light Rain
9:15 PM 51.8 °F - 46.4 °F 82% 29.95 in 6.2 mi NE 4.6 mph - N/A Rain Light Rain
9:45 PM 51.8 °F - 46.4 °F 82% 29.95 in 6.2 mi NE 5.8 mph - N/A Rain Light Rain
10:45 PM 51.8 °F - 48.2 °F 88% 29.95 in 6.2 mi NNE 4.6 mph - N/A Rain Light Rain
11:45 PM 50.0 °F - 48.2 °F 94% 29.98 in 6.2 mi North 3.5 mph - N/A Rain Light Rain